• In Belarus
  • List of Countries
  • For 7 days
  • Water Temperature
  • Satellite Maps
  • Weather Map
  • Weather Widgets
  • user-avatar
    Login

    Hourly Weather Charkhari

    Today, 18 January, Friday

    Time Temperature Precipitation Wind Pressure Humidity
    00:00 +13°C° 0 mm 1 mps 746 mmHg 51%
    01:00 +13°C° 0 mm 1 mps 746 mmHg 53%
    02:00 +12°C° 0 mm 1 mps 745 mmHg 55%
    03:00 +12°C° 0 mm 1 mps 746 mmHg 57%
    04:00 +11°C° 0 mm 1 mps 746 mmHg 59%
    05:00 +10°C° 0 mm 2 mps 746 mmHg 59%
    06:00 +12°C° 0 mm 2 mps 746 mmHg 57%
    07:00 +13°C° 0 mm 2 mps 746 mmHg 55%
    08:00 +14°C° 0 mm 2 mps 747 mmHg 53%
    09:00 +17°C° 0 mm 2 mps 747 mmHg 45%
    10:00 +19°C° 0 mm 2 mps 747 mmHg 38%
    11:00 +23°C° 0 mm 2 mps 747 mmHg 31%
    12:00 +24°C° 0 mm 2 mps 747 mmHg 28%
    13:00 +25°C° 0 mm 2 mps 746 mmHg 24%
    14:00 +26°C° 0 mm 2 mps 745 mmHg 21%
    15:00 +25°C° 0 mm 2 mps 745 mmHg 24%
    16:00 +23°C° 0 mm 2 mps 745 mmHg 27%
    17:00 +20°C° 0 mm 2 mps 744 mmHg 31%
    18:00 +19°C° 0 mm 2 mps 745 mmHg 37%
    19:00 +17°C° 0 mm 2 mps 745 mmHg 42%
    20:00 +16°C° 0 mm 2 mps 745 mmHg 48%
    21:00 +15°C° 0 mm 1 mps 745 mmHg 50%
    22:00 +15°C° 0 mm 1 mps 746 mmHg 53%
    23:00 +14°C° 0 mm 1 mps 746 mmHg 56%

    Tomorrow, 19 January, Saturday

    Time Temperature Precipitation Wind Pressure Humidity
    00:00 +14°C° 0 mm 1 mps 746 mmHg 57%
    01:00 +13°C° 0 mm 1 mps 745 mmHg 59%
    02:00 +12°C° 0 mm 0 mps 745 mmHg 60%
    03:00 +12°C° 0 mm 1 mps 745 mmHg 60%
    04:00 +12°C° 0 mm 1 mps 745 mmHg 61%
    05:00 +12°C° 0 mm 1 mps 745 mmHg 62%
    06:00 +13°C° 0 mm 1 mps 746 mmHg 57%
    07:00 +14°C° 0 mm 1 mps 747 mmHg 53%
    08:00 +15°C° 0 mm 1 mps 747 mmHg 49%
    09:00 +19°C° 0 mm 1 mps 747 mmHg 41%
    10:00 +22°C° 0 mm 1 mps 747 mmHg 34%
    11:00 +25°C° 0 mm 1 mps 747 mmHg 26%
    12:00 +26°C° 0 mm 1 mps 747 mmHg 23%
    13:00 +27°C° 0 mm 2 mps 746 mmHg 20%
    14:00 +28°C° 0 mm 2 mps 746 mmHg 16%
    15:00 +26°C° 0 mm 2 mps 745 mmHg 19%
    16:00 +25°C° 0 mm 2 mps 745 mmHg 22%
    17:00 +23°C° 0 mm 2 mps 745 mmHg 25%
    18:00 +21°C° 0 mm 2 mps 745 mmHg 30%
    19:00 +19°C° 0 mm 2 mps 746 mmHg 34%
    20:00 +17°C° 0 mm 2 mps 746 mmHg 39%
    21:00 +18°C° 0 mm 1 mps 746 mmHg 41%
    22:00 +16°C° 0 mm 1 mps 746 mmHg 43%
    23:00 +14°C° 0 mm 0 mps 746 mmHg 46%

    Day after tomorrow, 20 January, Sunday

    Time Temperature Precipitation Wind Pressure Humidity
    00:00 +14°C° 0 mm 0 mps 746 mmHg 46%
    01:00 +14°C° 0 mm 0 mps 746 mmHg 47%
    02:00 +13°C° 0 mm 0 mps 746 mmHg 48%
    03:00 +13°C° 0 mm 0 mps 746 mmHg 49%
    04:00 +13°C° 0 mm 0 mps 745 mmHg 50%
    05:00 +12°C° 0 mm 0 mps 745 mmHg 50%
    06:00 +14°C° 0 mm 0 mps 746 mmHg 47%
    07:00 +16°C° 0 mm 1 mps 747 mmHg 43%
    08:00 +18°C° 0 mm 1 mps 747 mmHg 40%
    09:00 +21°C° 0 mm 1 mps 748 mmHg 34%
    10:00 +24°C° 0 mm 1 mps 748 mmHg 28%
    11:00 +27°C° 0 mm 1 mps 748 mmHg 23%
    12:00 +28°C° 0 mm 1 mps 747 mmHg 21%
    13:00 +29°C° 0 mm 1 mps 746 mmHg 19%
    14:00 +30°C° 0 mm 2 mps 745 mmHg 17%
    15:00 +28°C° 0 mm 2 mps 745 mmHg 20%
    16:00 +27°C° 0 mm 2 mps 745 mmHg 23%
    17:00 +25°C° 0 mm 2 mps 745 mmHg 26%
    18:00 +24°C° 0 mm 2 mps 745 mmHg 29%
    19:00 +21°C° 0 mm 2 mps 745 mmHg 33%
    20:00 +19°C° 0 mm 2 mps 746 mmHg 37%
    21:00 +19°C° 0 mm 2 mps 746 mmHg 38%
    22:00 +18°C° 0 mm 2 mps 746 mmHg 39%
    23:00 +17°C° 0 mm 2 mps 745 mmHg 41%

    21 January, Monday

    Time Temperature Precipitation Wind Pressure Humidity
    00:00 +17°C° 0 mm 2 mps 745 mmHg 40%
    01:00 +17°C° 0 mm 2 mps 745 mmHg 40%
    02:00 +16°C° 0 mm 2 mps 745 mmHg 39%
    03:00 +16°C° 0 mm 2 mps 744 mmHg 39%
    04:00 +16°C° 0 mm 2 mps 744 mmHg 39%
    05:00 +16°C° 0 mm 2 mps 744 mmHg 38%
    06:00 +17°C° 0 mm 2 mps 745 mmHg 37%
    07:00 +18°C° 0 mm 2 mps 745 mmHg 36%
    08:00 +19°C° 0 mm 2 mps 746 mmHg 34%
    09:00 +22°C° 0 mm 3 mps 746 mmHg 28%
    10:00 +26°C° 0 mm 3 mps 746 mmHg 23%
    11:00 +30°C° 0 mm 4 mps 746 mmHg 17%
    12:00 +32°C° 0 mm 4 mps 745 mmHg 15%
    13:00 +33°C° 0 mm 3 mps 744 mmHg 14%
    14:00 +35°C° 0 mm 3 mps 743 mmHg 12%
    15:00 +33°C° 0 mm 3 mps 742 mmHg 14%
    16:00 +31°C° 0 mm 3 mps 742 mmHg 16%
    17:00 +29°C° 0 mm 2 mps 742 mmHg 18%
    18:00 +27°C° 0.1 mm 3 mps 742 mmHg 24%
    19:00 +25°C° 0.1 mm 3 mps 742 mmHg 29%
    20:00 +22°C° 0.1 mm 3 mps 743 mmHg 35%
    21:00 +21°C° 0.1 mm 3 mps 743 mmHg 38%
    22:00 +20°C° 0.1 mm 2 mps 743 mmHg 41%
    23:00 +19°C° 0.1 mm 2 mps 742 mmHg 44%

    22 January, Tuesday

    Time Temperature Precipitation Wind Pressure Humidity
    00:00 +19°C° 0 mm 2 mps 742 mmHg 45%
    01:00 +19°C° 0 mm 1 mps 742 mmHg 46%
    02:00 +19°C° 0 mm 1 mps 741 mmHg 47%
    03:00 +18°C° 0 mm 1 mps 742 mmHg 51%
    04:00 +16°C° 0 mm 1 mps 742 mmHg 54%
    05:00 +16°C° 0 mm 2 mps 742 mmHg 58%
    06:00 +16°C° 0 mm 2 mps 743 mmHg 57%
    07:00 +17°C° 0 mm 2 mps 743 mmHg 55%
    08:00 +18°C° 0 mm 2 mps 744 mmHg 53%
    09:00 +20°C° 0.1 mm 2 mps 744 mmHg 47%
    10:00 +24°C° 0.1 mm 1 mps 744 mmHg 41%
    11:00 +26°C° 0.1 mm 1 mps 744 mmHg 34%
    12:00 +28°C° 0 mm 1 mps 743 mmHg 32%
    13:00 +29°C° 0 mm 2 mps 742 mmHg 29%
    14:00 +30°C° 0 mm 3 mps 742 mmHg 26%
    15:00 +29°C° 0 mm 3 mps 742 mmHg 27%
    16:00 +28°C° 0 mm 3 mps 742 mmHg 28%
    17:00 +27°C° 0 mm 3 mps 742 mmHg 29%
    18:00 +25°C° 0 mm 3 mps 742 mmHg 35%
    19:00 +22°C° 0 mm 3 mps 743 mmHg 42%
    20:00 +20°C° 0 mm 3 mps 744 mmHg 48%
    21:00 +20°C° 0 mm 2 mps 744 mmHg 51%
    22:00 +19°C° 0 mm 2 mps 744 mmHg 54%
    23:00 +18°C° 0 mm 2 mps 745 mmHg 57%

    23 January, Wednesday

    Time Temperature Precipitation Wind Pressure Humidity
    00:00 +18°C° 0 mm 2 mps 744 mmHg 58%
    01:00 +17°C° 0 mm 2 mps 744 mmHg 60%
    02:00 +17°C° 0 mm 3 mps 744 mmHg 61%
    03:00 +17°C° 0 mm 3 mps 744 mmHg 65%
    04:00 +16°C° 0 mm 2 mps 744 mmHg 69%
    05:00 +16°C° 0 mm 2 mps 744 mmHg 73%
    06:00 +17°C° 0 mm 2 mps 745 mmHg 70%
    07:00 +17°C° 0 mm 3 mps 746 mmHg 66%
    08:00 +18°C° 0 mm 3 mps 746 mmHg 63%
    09:00 +21°C° 0 mm 3 mps 746 mmHg 54%
    10:00 +25°C° 0 mm 3 mps 746 mmHg 44%
    11:00 +27°C° 0 mm 3 mps 746 mmHg 35%
    12:00 +28°C° 0 mm 2 mps 746 mmHg 31%
    13:00 +29°C° 0 mm 2 mps 745 mmHg 27%
    14:00 +30°C° 0 mm 1 mps 744 mmHg 24%
    15:00 +29°C° 0 mm 2 mps 744 mmHg 26%
    16:00 +28°C° 0 mm 3 mps 744 mmHg 28%
    17:00 +27°C° 0 mm 3 mps 744 mmHg 30%
    18:00 +25°C° 0 mm 3 mps 744 mmHg 39%
    19:00 +22°C° 0 mm 3 mps 745 mmHg 47%
    20:00 +20°C° 0 mm 3 mps 745 mmHg 55%
    21:00 +19°C° 0 mm 3 mps 745 mmHg 56%
    22:00 +19°C° 0 mm 3 mps 746 mmHg 58%
    23:00 +18°C° 0 mm 2 mps 746 mmHg 59%
    Show more